Weather Roundup
Issued by NWS Chicago, IL

Home | Current Version | Previous Version | Text Only | Print | Product List | Glossary On
Versions: 1 2 3 4 5 6 7 8 9 10 11 12 13 14 15 16 17 18 19 20 21 22 23 24 25 26 27 28 29 30 31 32 33 34 35 36 37 38 39 40 41 42 43 44 45 46 47 48 49 50
000
NZUS59 KLOT 201908
HRRLOT

CHICAGO AREA WEATHER ROUNDUP
NATIONAL WEATHER SERVICE CHICAGO/ROMEOVILLE IL
200 PM CDT FRI APR 20 2018

NOTE: "FAIR" INDICATES FEW OR NO CLOUDS BELOW 12,000 FEET WITH NO
SIGNIFICANT WEATHER AND/OR OBSTRUCTIONS TO VISIBILITY.

* THESE STATIONS ARE NOT UNDER NWS QUALITY CONTROL. THEY ALSO MAY NOT
  REPORT WEATHER SUCH AS PRECIPITATION OR FOG.

ILZ005-006-012>014-019>023-202000-
NORTHEAST ILLINOIS

CITY           SKY/WX    TMP DP  RH WIND       PRES   REMARKS
OHARE          PTSUNNY   58  17  20 CALM      30.47F
MIDWAY         PTSUNNY   58  18  21 NE9       30.49F
AURORA           N/A     58  18  21 W3        30.47F
LANSING*         N/A     57  27  31 NE3       30.49S
JOLIET*          N/A     60  24  24 E3        30.48F
WAUKEGAN         N/A     52  28  39 SE7       30.49F
DUPAGE AIRPORT   N/A     59  17  19 MISG      30.47F
WHEELING         N/A     60  25  26 NE7       30.50F
KANKAKEE*        N/A     59  22  24 CALM      30.48F
MORRIS*          N/A     59  23  25 CALM      30.47F
LEWIS AIRPORT*   N/A     59  21  22 NE5       30.48F
NORTHERLY ISL    N/A     43  34  70 NE3         N/A
$$

WIZ051-052-058>065-066-070>072-202000-
SOUTHEAST WISCONSIN

CITY           SKY/WX    TMP DP  RH WIND       PRES   REMARKS
MILWAUKEE      PTSUNNY   51  29  42 SE7       30.50F
KENOSHA*         N/A     56  30  37 VRB7      30.49F
RACINE*          N/A     52  28  39 SE10      30.51F
BURLINGTON       N/A     56  20  24 W5        30.49S
WAUKESHA       SUNNY     52  16  24 CALM      30.50F
WEST BEND        N/A     52  21  30 S3        30.48S
$$

INZ001>003-010>013-019-020-202000-
NORTHWEST INDIANA

CITY           SKY/WX    TMP DP  RH WIND       PRES   REMARKS
GARY*          MOSUNNY   55  14  19 NE9       30.50F
MICHIGAN CITY* NOT AVBL
RENSSELAER*    NOT AVBL
VALPARAISO       N/A     60  16  18 NE7       30.48F
$$

LMZ740>746-202000-
SOUTHERN LAKE MICHIGAN

STATION/POSITION TIME  SKY/WX   TEMP WIND        PRES    VSBY
                                AIR  DIR/SP/G
                 (UTC)          (F)  (DEG/KT/KT) (MB)    (MI)
HARRISON CRIB    1840            43   90/  6/  7   N/A
BURNHAM HARBOR   1900            43   60/  3/  5   N/A
CALUMET HARBOR   1842            43   50/  7/  8 1032.2F
BURNS HARBOR     1840            43   60/  6/  7 1033.2F
MICHIGAN CITY    1840            40   10/  5/  6   N/A
$$

ABBREVIATIONS USED IN REMARKS
   TC - TEMPERATURE IN CELSIUS
  WCI - WIND CHILL INDEX
   HX - HEAT INDEX
  VSB - VISIBILITY
$$




USA.gov is the U.S. government's official web portal to all federal, state and local government web resources and services.